DELTA 1 DEB, 28979

Orbit data source: Space-Track

DELTA 1 DEB, 28979 is space debris in LEO originally from a launch on Thu, 29 Jul 1976 UTC launched from the Air Force Western Test Range (AFWTR). Debris objects in space refer to the collection of defunct objects orbiting the Earth. Examples of debris include non-operational satellites, rocket bodies, and fragments generated from explosions, collisions, or faulty payload assembly.

Loading next visibility...
Identifier
28979, 1976-077FU
Orbit
LEO
Country
Flag of USUS
Related business
Manufacturer
Unknown
Mission
Spacecraft
Bus & Motor
Unknown
Mass
Unknown
Launch date (UTC)
1976-07-29 (49 years ago)
Launch vehicle
Unknown
Launch site
Air Force Western Test Range (AFWTR)
Object type
Payload
Rocket body
Debris
Shape & HBR
Unknown shape, 1.1 m
Radar Cross Section
Small (<0.1 m²)

Expand to show TLE details & history
Last TLE update: 1 day ago

TLE from 1 day ago
0 DELTA 1 DEB
1 28979U 76077FU  25288.45716029  .00000027  00000-0  13121-2 0  9990
2 28979 101.9962 105.2510 0804478 292.5688  59.2134 10.95189883856656
Epoch: 2025-10-15T10:58Z
TLE epoch observation values (Epoch: 2025-10-15T10:58:18.649Z)
Latitude
-0.00003°
Longitude
-83.55766°
Altitude
1,880.233 km
Speed
7.073 km/s
True Right ascension
07h 01m 00s
True Declination
0° 00' 00"
Sunlit
Object was in daylight at epoch
Visualization orbit readout
Latitude
Unknown
Longitude
Unknown
Altitude
Unknown
Speed
Unknown
Apparent Right ascension
Unknown
Apparent Declination
Unknown
Sunlit
N/A
Visualization observer readout
Local Sidereal Time
12:32:40
Azimuth
Unknown
Elevation
Unknown
Doppler factor
Unknown
Orbital elements
Apogee altitude
2,873.78 km
Perigee altitude
1,496.024 km
Semi-major axis
8,563.039 km
Eccentricity
0.08045
Inclination
101.9962°
RAAN
105.251°
Arg. of periapsis
292.5688°
True anomaly
67.53219°
Mean anomaly
59.2134°
Eccentric anomaly
63.3324°
Mean motion
2.73906 °/min
Orbital period
131.43 mins
BSTAR
0.0013121
Loading maneuver chart data...
Computing Atmospheric mass density...
Loading historical data...
Loading historical data...
Loading historical data...
Loading historical data...
Loading historical data...
Loading historical data...
Loading historical data...

Documentation

Showing up to 5 results
|